Temp
61 61 61 61 62 62 62 62 62 62 62 62 62 62 62 62 61 64 67 80 79 80 81 84 82 85 85 80 80 76 65 67 65 71 75 80 76 83 85 78 81 83 77 79 82
61 61 61 61 61 61 62 62 62 62 62 62 62 62 62 62 60 65 81 82 82 81 84 83 80 83 75 77 78 71 64 70 80 78 79 80 80 79 77 76 77 77 81 82 83
61 61 60 60 61 61 61 61 62 61 61 61 61 61 62 61 62 75 81 82 82 82 88 86 86 83 75 76 78 76 71 80 85 86 85 80 80 83 76 73 76 73 76 80 80
60 60 60 60 60 61 61 61 61 60 60 61 61 62 62 59 63 87 81 80 83 85 85 83 81 74 72 73 82 73 83 85 88 90 87 81 83 79 79 78 82 79 80 80 78
60 60 60 60 60 60 60 60 60 60 60 60 61 62 57 59 67 88 83 82 83 83 81 79 76 74 70 75 79 77 82 87 92 88 88 87 82 79 81 83 84 82 82 79 78
59 59 59 59 60 60 60 59 59 59 60 61 61 62 55 58 84 88 88 84 85 82 79 80 79 80 75 77 76 82 83 84 90 86 86 85 82 83 81 85 81 80 79 79 79
59 59 59 59 59 60 59 58 58 59 60 61 62 62 58 67 85 85 83 80 83 84 79 82 85 76 77 76 84 82 76 81 83 87 84 86 76 76 83 82 79 78 79 80 80
59 59 59 59 59 59 58 57 58 59 61 62 62 59 54 79 82 82 84 84 86 83 85 85 85 79 75 81 80 73 69 64 80 82 86 81 67 78 83 80 76 78 80 79 79
58 58 58 58 58 58 57 57 58 62 63 63 56 54 57 81 75 81 82 84 84 84 85 94 82 75 75 69 63 64 60 65 72 82 82 76 67 81 83 81 78 80 79 80 79
58 58 58 58 57 57 56 57 58 61 63 66 68 58 68 77 83 85 84 87 83 82 81 80 72 67 64 60 54 59 60 65 67 78 78 70 70 79 81 80 78 79 81 82 79
58 57 57 57 57 55 54 48 60 58 59 61 62 66 76 82 89 85 87 85 83 75 67 71 63 62 64 67 70 69 66 66 74 79 73 73 73 77 80 79 77 78 79 80 82
57 57 57 56 55 56 50 55 59 64 54 71 72 74 77 79 75 81 88 77 74 68 68 65 62 68 73 73 72 71 68 67 73 79 75 70 74 78 79 79 79 79 79 80 82
57 57 56 55 55 55 53 58 68 66 53 65 74 73 74 76 70 74 80 79 72 67 68 64 67 76 75 72 70 69 67 69 67 75 74 72 66 71 78 80 81 82 82 82 82
57 57 56 54 53 52 55 65 67 67 47 58 65 72 75 76 69 84 84 82 73 70 69 66 76 74 73 71 70 60 75 76 74 66 59 74 55 66 71 72 77 80 81 82 83
57 56 55 54 45 47 61 63 65 60 41 72 72 82 75 72 75 78 87 79 72 70 68 64 71 71 70 72 75 69 76 74 74 67 59 67 58 63 72 69 72 77 82 83 84
56 55 54 51 47 53 60 59 57 49 41 64 76 71 67 68 73 80 80 79 79 72 72 70 78 76 75 78 78 79 72 70 66 65 52 61 64 59 62 73 76 83 83 85 85
54 53 52 56 46 57 57 55 45 39 65 66 63 68 64 65 71 70 74 70 66 56 60 67 71 75 77 69 73 71 60 54 51 54 52 63 59 65 73 79 81 84 81 84 87
53 52 52 57 51 53 52 48 36 54 56 65 60 64 63 66 68 73 66 67 70 62 57 58 56 70 76 73 65 63 65 58 45 46 52 62 54 64 76 84 85 88 86 84 87
52 47 50 51 59 55 45 35 41 51 59 56 57 54 55 63 60 65 66 67 71 71 58 53 59 72 79 79 75 68 58 70 54 48 50 57 62 71 76 78 82 83 83 85 88
46 42 46 58 60 51 40 38 45 57 59 58 47 53 47 53 55 56 56 70 72 77 76 64 53 67 77 78 78 70 71 57 50 49 49 54 56 64 69 73 75 81 82 87 89
42 39 52 60 58 46 36 39 50 59 61 53 50 49 52 51 53 52 55 66 71 75 77 73 60 64 68 67 67 67 64 56 60 58 54 45 60 69 71 72 73 81 87 89 89
40 33 53 61 39 40 41 46 53 55 60 57 57 55 53 55 52 53 54 61 71 69 61 71 66 59 65 72 76 76 69 63 61 51 56 63 63 74 76 77 76 79 86 90 91
37 36 52 50 32 34 40 46 51 50 48 49 51 53 54 48 45 52 54 66 60 59 53 61 64 57 55 63 62 64 71 72 55 55 59 52 56 75 76 76 77 78 81 82 85
37 32 39 42 46 39 37 41 42 52 52 53 49 51 47 44 46 43 49 55 58 59 61 57 53 57 58 63 64 60 68 70 68 63 61 61 58 66 69 71 74 77 83 84 85
37 33 37 30 37 39 41 42 39 40 50 50 46 47 43 36 40 43 48 48 54 59 54 47 40 51 58 68 72 70 68 71 66 68 63 68 61 66 70 71 77 81 81 80 88
38 38 39 35 35 35 40 40 37 40 42 42 42 46 44 37 42 39 44 40 42 49 47 46 41 48 51 65 72 70 72 73 71 72 70 65 64 72 77 76 75 79 82 80 81
42 46 40 39 33 30 33 39 41 45 44 48 47 44 43 46 48 52 49 47 47 42 45 42 41 43 40 58 67 61 71 72 71 72 72 64 69 71 71 72 73 77 77 79 78
MSLP
1019.10 1018.58 1018.10 1017.61 1017.05 1016.50 1016.04 1015.56 1015.12 1014.69 1014.19 1013.77 1013.38 1012.89 1012.33 1011.81 1010.91 1010.34 1008.93 1005.86 1006.12 1006.37 1006.79 1007.40 1008.13 1007.91 1008.55 1008.76 1009.08 1009.01 1008.51 1006.61 1006.16 1005.38 1005.66 1006.66 1006.66 1007.59 1007.43 1008.19 1008.97 1008.78 1009.60 1011.00 1011.73
1019.14 1018.57 1018.05 1017.52 1016.98 1016.46 1015.94 1015.45 1014.93 1014.47 1014.04 1013.54 1013.17 1012.73 1012.24 1011.84 1010.94 1008.51 1004.11 1004.09 1004.57 1005.54 1006.39 1006.64 1007.00 1007.36 1007.78 1007.75 1008.26 1008.38 1007.58 1005.82 1004.31 1003.99 1004.80 1005.18 1005.49 1006.42 1007.66 1008.64 1008.98 1009.27 1010.35 1011.24 1011.82
1019.07 1018.50 1017.91 1017.38 1016.80 1016.23 1015.65 1015.19 1014.73 1014.20 1013.77 1013.34 1012.92 1012.47 1012.02 1011.83 1010.48 1005.42 1003.03 1002.91 1003.85 1004.97 1005.60 1005.94 1006.36 1006.78 1006.90 1006.69 1006.55 1006.49 1005.80 1004.37 1003.60 1002.78 1003.69 1004.35 1004.87 1005.49 1006.83 1007.92 1007.48 1008.75 1010.05 1010.87 1011.62
1018.99 1018.37 1017.74 1017.10 1016.49 1015.89 1015.35 1014.73 1014.30 1013.97 1013.47 1013.05 1012.72 1012.25 1011.69 1011.60 1008.48 1003.37 1002.85 1002.68 1003.41 1004.57 1005.41 1005.69 1005.97 1006.44 1006.24 1005.91 1004.59 1005.23 1004.16 1003.55 1002.59 1001.51 1002.48 1003.76 1004.22 1005.39 1005.37 1006.12 1007.17 1007.64 1008.69 1010.11 1011.10
1018.89 1018.20 1017.46 1016.73 1016.06 1015.49 1014.93 1014.38 1013.76 1013.39 1013.09 1012.68 1012.42 1012.15 1011.47 1010.41 1006.10 1002.99 1002.83 1003.14 1004.03 1004.79 1005.06 1005.46 1005.65 1005.63 1005.46 1004.72 1004.20 1004.09 1003.09 1002.38 1002.12 1001.33 1002.00 1002.87 1003.33 1004.21 1005.45 1006.05 1007.81 1008.66 1009.25 1009.92 1010.71
1018.48 1017.84 1017.18 1016.42 1015.63 1014.92 1014.22 1013.64 1013.08 1012.62 1012.33 1012.14 1012.03 1012.00 1011.56 1008.67 1003.41 1002.54 1002.72 1003.38 1003.69 1004.19 1004.49 1004.85 1004.70 1004.69 1004.80 1004.05 1003.89 1003.05 1002.76 1002.06 1001.70 1001.20 1001.29 1002.50 1003.30 1003.63 1005.27 1006.18 1007.72 1008.42 1008.97 1009.72 1010.35
1018.52 1017.67 1016.80 1016.06 1015.34 1014.55 1013.71 1012.89 1012.28 1011.73 1011.37 1011.30 1011.47 1011.50 1010.36 1004.99 1002.82 1002.46 1002.46 1002.84 1002.94 1003.30 1003.89 1003.96 1004.08 1004.52 1004.26 1003.91 1003.02 1002.82 1002.69 1001.72 1000.91 1001.25 1001.22 1002.55 1003.46 1003.75 1004.47 1005.56 1007.19 1008.15 1008.69 1009.25 1009.85
1018.45 1017.66 1016.75 1015.78 1014.96 1014.13 1013.18 1012.21 1011.25 1010.58 1010.07 1010.21 1010.72 1010.76 1007.90 1003.07 1002.62 1002.77 1002.67 1002.91 1002.74 1003.06 1002.91 1002.97 1003.56 1004.13 1004.43 1003.60 1003.21 1003.30 1002.99 1002.41 1000.55 1000.71 1001.13 1001.55 1003.42 1003.98 1004.80 1005.60 1006.85 1007.68 1008.33 1008.79 1009.26
1018.18 1017.41 1016.53 1015.56 1014.66 1013.68 1012.44 1011.31 1010.19 1009.41 1009.29 1009.66 1010.27 1009.94 1005.80 1002.30 1002.31 1001.03 1001.71 1002.03 1002.07 1002.33 1002.50 1002.45 1003.33 1003.98 1004.10 1004.33 1004.22 1004.07 1003.57 1002.85 1001.30 1000.93 1001.76 1001.37 1003.14 1003.64 1004.61 1005.08 1006.23 1006.93 1007.44 1007.86 1008.69
1018.15 1017.22 1016.23 1015.13 1014.03 1013.20 1011.80 1010.20 1009.37 1009.51 1009.46 1009.66 1009.11 1008.98 1004.06 1001.38 1000.43 1000.15 1000.39 1001.19 1001.81 1001.95 1002.50 1002.58 1003.23 1003.71 1004.16 1004.60 1004.52 1004.33 1003.89 1002.87 1001.91 1000.44 1001.46 1001.71 1002.09 1003.08 1004.14 1004.84 1005.21 1005.87 1006.43 1007.04 1007.56
1018.05 1017.08 1015.99 1014.72 1013.65 1012.77 1011.69 1010.46 1009.51 1009.20 1008.73 1007.67 1006.63 1005.02 1002.11 1000.79 999.89 999.31 999.59 1000.69 1001.40 1001.77 1002.46 1002.64 1003.36 1003.29 1003.75 1004.01 1003.89 1003.88 1003.67 1003.07 1001.33 1001.16 1001.49 1001.09 1001.68 1002.32 1003.26 1004.51 1004.94 1005.39 1005.90 1006.23 1006.36
1017.91 1016.96 1015.90 1014.49 1013.17 1012.14 1012.12 1011.50 1010.54 1010.22 1007.64 1005.31 1003.81 1002.97 1001.59 1001.51 1001.12 999.27 998.87 1000.24 1000.91 1001.66 1002.36 1003.02 1002.57 1002.96 1003.27 1003.35 1003.48 1003.40 1003.21 1002.33 1001.49 1001.08 1001.68 1001.96 1001.68 1002.06 1002.71 1002.86 1003.39 1004.27 1005.29 1005.46 1005.97
1017.69 1016.85 1015.82 1014.36 1012.47 1011.74 1012.07 1010.46 1009.55 1009.15 1007.96 1003.14 1001.26 1000.35 999.75 1000.56 1000.60 999.30 999.15 999.21 1000.06 1001.20 1001.74 1002.17 1001.96 1002.25 1002.60 1002.68 1002.86 1002.63 1002.58 1001.68 1002.13 1001.45 1001.60 1001.99 1002.62 1002.81 1002.75 1003.17 1003.37 1003.66 1003.81 1004.38 1004.62
1017.57 1016.75 1016.02 1014.86 1012.54 1012.84 1011.13 1009.83 1009.33 1008.84 1007.35 1002.40 999.91 997.71 998.13 998.71 998.95 997.97 998.06 998.47 999.29 1000.07 1001.09 1001.46 1001.17 1001.46 1001.60 1001.60 1001.96 1001.93 1001.34 1001.57 1002.09 1002.54 1002.46 1002.07 1002.88 1002.91 1002.77 1002.68 1002.78 1002.87 1003.17 1003.50 1003.90
1017.36 1016.65 1016.07 1016.00 1015.35 1013.84 1010.66 1009.83 1009.25 1008.43 1006.18 999.88 997.72 996.25 996.73 997.31 996.47 996.04 996.97 998.01 998.24 999.08 1000.32 999.78 999.94 1000.30 1000.42 1000.48 1001.04 1000.71 1001.44 1001.57 1002.00 1002.63 1002.87 1002.26 1002.64 1001.85 1001.73 1002.09 1002.04 1001.82 1001.82 1002.13 1002.47
1017.19 1016.31 1015.78 1015.10 1015.05 1012.23 1011.18 1010.29 1009.53 1008.86 1004.82 999.58 996.80 996.79 997.52 997.28 996.43 995.37 996.40 997.44 997.71 998.72 998.96 999.33 999.13 999.22 999.29 999.92 1000.26 1000.58 1001.28 1001.45 1001.88 1002.51 1002.66 1002.09 1002.10 1001.37 1000.65 1000.17 1000.36 1000.22 1000.29 1000.34 1001.17
1017.00 1015.99 1014.98 1014.77 1013.02 1011.43 1011.23 1010.57 1010.13 1007.56 1002.84 999.69 998.86 998.46 997.40 997.32 997.04 996.43 996.52 997.17 997.47 998.49 998.60 999.00 998.72 998.46 998.63 999.34 999.56 1000.08 1001.30 1002.09 1002.19 1002.28 1001.36 1001.26 1001.20 999.71 998.61 998.16 998.15 998.39 998.82 999.37 999.76
1016.56 1015.58 1013.17 1012.33 1011.77 1012.31 1011.92 1011.41 1009.49 1005.66 1003.09 1000.89 1000.96 999.36 998.78 998.07 997.43 996.75 997.07 997.18 997.43 997.99 998.54 999.10 998.40 997.95 997.44 997.76 998.70 999.45 1000.22 1000.85 1001.92 1001.93 1001.29 1000.54 999.87 998.13 997.23 996.71 996.59 996.42 996.79 997.95 998.45
1016.33 1014.81 1012.98 1011.00 1010.59 1011.95 1012.26 1010.97 1007.96 1005.83 1004.48 1003.31 1002.06 1001.07 1000.37 999.40 999.49 998.42 997.11 996.80 996.76 997.33 998.22 998.59 997.80 997.01 996.70 996.81 997.63 998.17 999.26 999.81 1001.04 1001.46 1001.26 999.67 998.40 996.89 996.42 996.34 996.06 996.07 996.66 996.65 997.15
1016.91 1015.77 1012.47 1010.71 1010.66 1011.62 1012.00 1009.84 1007.80 1005.89 1005.21 1004.78 1004.40 1003.21 1003.13 1002.46 1001.97 1000.98 999.07 996.20 996.19 996.38 996.84 997.24 997.41 996.18 995.70 996.06 996.42 996.86 997.83 999.35 1000.24 1000.64 1000.39 999.12 997.92 995.88 995.84 995.55 995.60 995.33 995.57 995.44 995.78
1017.13 1016.18 1011.00 1010.57 1010.10 1011.15 1010.96 1009.82 1008.14 1006.14 1006.12 1005.87 1005.48 1005.43 1004.63 1004.58 1003.84 1003.20 1001.03 998.43 997.07 996.67 996.17 996.55 997.09 995.79 995.45 995.08 995.31 996.19 996.68 997.74 998.57 999.14 999.15 998.61 995.46 995.15 995.12 995.15 995.13 994.42 993.58 993.74 994.33
1017.73 1016.64 1011.51 1011.27 1011.65 1011.02 1010.71 1009.54 1008.70 1007.27 1006.34 1006.33 1006.03 1005.64 1005.61 1004.99 1003.91 1003.44 1001.98 1000.97 999.31 999.67 999.00 997.28 996.41 995.64 994.46 993.67 993.73 994.51 995.07 996.41 997.47 997.91 997.52 996.46 992.77 993.80 994.18 994.33 994.35 993.63 993.08 992.63 993.03
1018.17 1016.23 1012.35 1012.22 1013.01 1012.91 1011.90 1010.38 1009.47 1008.53 1007.85 1007.25 1006.81 1006.51 1006.48 1006.33 1005.47 1003.80 1003.03 1001.88 1002.56 1001.96 1001.34 999.10 996.15 996.09 994.62 993.74 993.62 993.50 993.86 994.32 995.15 996.05 996.02 995.74 994.02 993.58 993.79 993.94 993.48 993.12 993.39 993.41 993.62
1018.37 1017.26 1014.56 1013.74 1014.05 1014.14 1013.06 1011.72 1010.57 1009.77 1008.54 1007.95 1007.70 1007.19 1007.22 1006.86 1006.74 1005.98 1004.96 1004.23 1004.26 1003.51 1002.38 1000.48 998.33 996.40 993.98 992.92 993.19 992.86 992.56 993.18 993.70 994.36 994.57 992.88 994.27 993.69 993.56 993.49 993.48 992.74 992.37 992.32 992.56
1018.44 1017.73 1016.41 1015.86 1014.80 1014.90 1014.25 1013.25 1012.03 1010.57 1009.26 1008.84 1008.45 1008.40 1008.30 1007.98 1007.61 1006.56 1006.27 1006.14 1005.24 1004.09 1003.82 1002.79 1000.63 997.68 995.38 993.34 991.65 991.29 991.32 991.62 991.80 992.26 992.28 992.28 993.24 993.63 993.36 993.26 992.81 992.52 992.63 991.91 991.54
1018.31 1017.86 1017.14 1016.48 1015.74 1015.18 1014.14 1013.18 1012.75 1011.48 1010.87 1009.68 1009.44 1008.82 1008.62 1008.66 1008.17 1007.43 1007.04 1007.09 1006.75 1005.51 1005.19 1003.70 1002.17 999.27 995.75 993.01 991.06 990.13 990.20 989.82 990.09 990.82 991.17 991.39 991.77 991.87 991.92 991.83 992.05 992.02 992.22 992.25 991.99
1017.59 1017.29 1017.18 1016.40 1015.75 1015.60 1014.40 1013.60 1012.94 1012.26 1011.37 1010.56 1009.55 1009.24 1008.45 1008.13 1007.95 1006.78 1006.39 1006.57 1006.68 1006.79 1005.79 1004.84 1002.97 1000.90 997.20 993.88 991.31 990.10 986.58 988.42 989.08 989.54 990.07 990.50 991.08 991.02 991.30 991.26 991.53 991.27 991.49 991.50 991.44
Wind_Speed
20 20 20 20 21 21 20 20 20 20 20 20 19 19 19 19 19 4 9 14 12 18 10 10 10 8 13 10 5 1 4 8 5 2 10 15 17 13 10 19 8 4 15 21 20
21 21 22 22 21 21 21 21 20 20 20 21 19 19 18 18 5 11 19 16 18 17 9 10 10 11 5 8 8 6 5 7 7 6 8 20 25 19 12 19 7 22 20 20 20
22 22 22 22 22 22 22 22 22 22 21 21 19 18 17 14 5 10 4 21 19 15 8 12 8 6 8 3 7 9 13 16 16 18 20 23 20 16 24 13 27 27 27 24 20
22 23 23 24 24 24 23 24 23 22 22 21 19 17 18 2 7 3 6 8 17 12 6 3 5 6 5 9 8 7 16 11 11 3 19 22 21 16 24 13 25 31 32 27 24
22 23 24 25 25 25 25 24 24 23 21 20 16 14 5 2 16 8 2 11 7 8 9 9 7 5 6 6 3 9 14 13 13 8 11 13 19 20 16 22 22 24 25 25 22
24 24 23 24 25 26 26 25 24 24 22 19 14 8 3 9 7 10 9 6 6 6 7 9 8 9 6 8 7 4 10 12 8 10 9 11 8 10 17 24 25 26 26 23 22
24 25 27 27 26 27 27 28 27 27 24 18 10 5 4 22 5 5 4 7 9 9 7 9 15 2 2 8 6 5 7 12 8 11 5 13 5 16 26 30 28 26 24 23 21
23 25 27 28 28 28 29 29 30 30 22 11 8 5 12 7 13 17 14 14 6 7 10 9 10 8 4 8 8 5 2 4 11 3 13 12 10 19 25 28 27 27 23 23 22
24 25 26 28 28 29 30 31 32 17 3 11 6 4 13 8 6 13 10 13 13 9 7 10 7 7 3 4 6 5 6 6 14 9 9 5 6 18 25 26 26 25 26 22 21
25 26 28 29 30 29 32 31 16 2 5 6 5 2 7 7 5 6 12 14 6 8 4 6 4 6 1 4 7 6 4 6 7 9 8 2 10 18 26 24 26 24 22 22 23
24 26 28 30 31 31 19 8 5 3 3 8 7 8 15 4 6 7 8 9 7 3 8 5 5 13 10 8 6 6 6 9 16 5 4 13 14 24 27 23 23 21 21 20 22
24 25 27 32 34 33 3 4 3 6 15 16 24 26 28 2 8 8 10 10 9 12 5 5 12 7 9 7 10 10 13 19 12 10 2 6 16 18 25 27 26 23 21 22 21
24 25 27 30 37 5 7 6 7 15 5 9 16 16 14 16 16 19 6 9 8 10 11 12 8 12 10 11 10 14 16 17 9 9 1 9 3 6 10 12 15 19 22 23 25
23 25 24 30 7 9 7 8 15 9 4 10 7 11 10 9 10 20 10 12 6 19 9 11 15 13 17 14 10 12 15 15 13 3 4 4 5 5 9 8 17 22 21 21 23
24 25 22 14 6 6 9 15 18 3 6 4 5 2 8 15 6 14 14 6 17 9 8 9 19 17 17 17 16 15 10 12 14 9 4 10 3 8 12 11 13 18 23 23 24
25 26 25 5 3 13 13 16 2 5 10 8 5 7 8 4 3 1 10 3 5 8 9 11 7 14 16 13 19 14 7 8 5 7 7 10 13 7 9 22 17 21 20 26 25
24 26 23 6 7 5 9 4 4 6 5 5 6 8 3 8 9 3 19 17 14 9 15 9 17 7 7 9 9 9 7 7 7 10 11 10 8 10 13 18 25 25 17 16 24
25 26 13 10 7 6 4 5 7 5 10 9 12 11 5 4 7 11 6 18 13 5 5 13 12 14 8 17 10 9 14 12 11 5 6 6 8 9 14 19 26 28 22 17 23
23 6 7 5 7 5 3 4 8 7 6 13 12 5 8 7 15 6 14 17 17 18 11 8 15 3 19 16 15 14 7 15 8 3 2 5 6 7 8 11 24 21 17 21 25
7 5 7 7 1 4 3 5 7 2 11 9 3 4 11 15 11 17 6 7 14 25 21 11 4 10 19 16 16 13 8 5 1 14 19 6 6 12 8 8 11 23 25 26 25
3 5 5 7 5 3 6 8 5 20 9 8 14 14 16 12 9 11 12 16 8 10 23 20 8 12 7 13 15 10 12 3 4 8 12 5 18 8 11 9 10 19 27 29 28
3 5 4 13 5 2 7 8 8 17 20 12 10 17 16 18 19 12 13 8 21 17 13 13 16 17 25 11 13 24 15 13 11 11 9 18 23 2 10 11 9 15 21 27 26
2 6 7 4 5 7 10 9 8 11 7 7 5 8 8 5 8 8 9 11 22 15 9 11 12 14 8 11 3 7 16 18 5 4 18 10 5 8 9 8 4 8 8 8 7
2 5 6 4 1 10 11 8 12 14 8 7 6 5 8 2 3 9 9 10 17 14 24 14 7 12 20 21 7 7 11 16 18 16 13 20 5 5 2 2 6 10 14 14 12
0 4 2 5 5 10 7 10 14 9 6 7 5 9 4 4 4 4 4 8 15 9 17 6 6 5 13 18 21 17 11 19 21 20 22 20 12 10 10 9 10 9 9 7 15
2 3 4 5 5 7 5 4 10 12 9 7 6 12 7 5 6 13 9 2 3 9 11 6 7 9 8 13 25 23 19 22 17 21 19 8 8 12 13 11 8 11 9 10 11
3 3 2 5 4 3 4 9 15 11 11 10 12 5 10 11 16 12 11 8 9 3 9 5 4 10 8 9 16 17 33 20 14 11 16 15 11 11 9 9 11 10 9 10 9
Wind_Direction
353 350 347 344 342 340 338 336 335 334 333 331 329 326 325 325 317 164 241 219 189 177 140 160 210 202 178 191 173 174 322 303 285 342 135 159 137 158 117 134 165 215 142 155 157
353 349 346 343 340 337 334 333 331 330 328 328 327 324 323 329 304 255 238 208 202 156 185 190 184 189 202 194 201 160 214 239 230 179 138 159 157 142 130 152 129 114 135 150 154
349 346 343 341 338 335 332 330 328 327 325 325 323 322 319 325 300 249 2 211 199 154 179 198 209 188 223 218 197 196 225 238 266 251 154 156 148 145 151 171 152 148 152 158 162
345 342 339 337 335 333 329 326 324 322 321 321 321 320 314 252 278 259 30 177 189 155 161 215 222 184 210 213 221 230 237 242 241 224 154 162 155 156 165 172 160 155 158 160 168
342 338 335 333 331 329 325 321 318 316 315 315 316 319 339 243 247 276 338 91 134 157 189 189 208 181 214 225 253 220 266 259 239 280 159 157 164 162 174 142 153 154 158 164 169
338 336 333 330 328 326 323 319 314 311 309 306 306 309 219 250 247 233 219 143 165 163 184 178 209 209 287 231 214 260 294 276 233 224 164 169 156 118 152 151 157 163 168 169 173
336 333 332 330 327 324 321 316 311 307 302 292 277 223 243 233 245 12 100 202 169 179 186 203 214 171 182 303 295 245 297 305 274 219 185 120 168 149 156 155 162 170 174 174 178
334 331 328 326 325 322 318 312 308 305 295 264 203 194 245 235 240 261 257 262 249 226 203 189 188 221 202 287 320 352 32 312 278 245 169 128 177 153 158 159 168 174 177 178 181
332 330 326 323 322 320 316 311 307 306 135 147 134 177 266 282 204 227 168 209 224 227 235 215 132 194 273 225 353 10 250 265 300 171 166 127 151 164 169 167 171 177 178 181 178
329 328 325 324 323 323 319 310 289 282 143 184 254 334 262 253 228 193 178 204 189 198 216 201 169 186 205 116 214 217 259 268 246 282 138 164 166 165 174 174 176 183 185 184 175
329 327 325 324 323 321 332 345 6 9 162 246 210 258 296 272 303 220 161 166 194 146 199 225 168 221 221 199 213 225 246 253 267 324 150 175 158 169 173 181 182 184 187 188 194
329 328 326 323 321 320 333 3 248 319 298 244 248 241 248 52 305 299 137 159 162 197 153 249 227 205 198 215 216 238 248 263 298 273 167 226 172 175 174 186 182 182 189 190 195
329 329 329 327 318 349 300 239 330 339 263 269 228 234 227 191 223 255 195 172 160 178 198 208 231 204 208 226 211 228 235 254 235 304 342 146 27 179 193 177 189 190 190 192 190
327 327 332 337 6 335 281 314 331 313 327 273 235 255 174 154 222 221 196 184 172 195 192 220 219 201 213 223 201 232 233 247 255 274 256 199 246 204 225 198 178 191 194 196 197
328 326 329 337 272 307 282 330 319 60 320 221 229 116 154 171 168 208 187 222 191 165 165 219 192 212 212 216 221 242 235 246 244 244 190 268 128 249 192 220 204 194 194 197 199
325 321 327 327 256 244 296 298 10 56 246 289 189 147 131 242 256 94 160 189 149 177 218 206 222 200 212 213 220 232 238 254 245 228 236 228 205 240 178 205 215 202 199 196 197
319 316 313 275 237 296 343 2 65 204 305 253 355 354 213 166 233 134 187 193 198 156 215 219 230 222 159 195 221 193 181 248 259 232 233 215 226 222 216 197 202 208 207 202 197
316 313 270 242 237 264 341 61 210 232 265 37 344 319 212 102 239 227 171 207 213 148 171 209 248 218 213 213 202 203 195 209 219 219 251 219 219 243 210 208 204 210 205 196 195
323 303 278 278 225 133 91 182 207 211 16 353 351 351 0 13 17 307 208 207 214 199 187 178 237 221 211 224 192 234 181 208 208 201 320 226 258 277 224 216 216 217 206 201 198
324 310 267 268 357 108 101 244 228 308 12 351 313 316 360 345 336 1 308 243 211 203 198 216 272 210 231 211 238 194 185 225 279 218 239 235 233 230 222 245 202 210 207 206 202
11 333 288 360 355 124 217 217 275 291 328 2 319 295 296 313 312 299 264 307 285 225 203 211 182 242 196 215 211 206 213 206 167 190 228 234 251 190 227 232 231 210 204 201 197
350 311 313 335 16 264 229 185 241 276 287 283 283 280 279 298 280 265 251 233 323 332 306 256 211 231 231 208 197 220 214 182 211 228 240 233 239 52 204 223 226 225 208 203 194
286 259 302 85 22 3 340 350 13 6 10 346 306 18 353 325 317 2 349 346 7 9 6 318 229 229 260 264 201 190 216 215 134 135 220 216 254 207 217 256 254 227 188 169 188
347 317 317 21 58 10 356 348 339 329 303 337 301 355 353 314 33 309 330 343 340 340 352 354 239 245 237 227 182 199 202 206 213 216 219 230 185 281 251 282 291 231 223 191 178
283 263 303 322 340 333 343 294 341 334 2 24 329 1 340 304 301 269 305 328 338 0 347 24 278 314 301 263 200 203 195 209 212 218 211 233 192 216 247 216 243 243 276 217 199
250 310 326 287 292 338 304 346 347 334 335 318 329 329 351 242 253 284 302 67 222 322 329 340 287 337 280 258 215 215 209 217 217 219 227 208 215 179 217 225 224 217 210 245 207
242 251 249 284 300 342 261 347 317 320 300 307 295 322 316 309 320 266 222 210 220 220 287 274 330 358 284 316 209 227 219 210 218 210 209 216 204 193 196 200 208 232 218 213 256